Hoonah, AK

1:08 AM AKDT on September 28, 2016 (GMT -0800)
Hoonah

Weather History for PAOH - September, 2013

Change the Weather History Date:

Tuesday, September 10, 2013

  Actual Average Record
Temperature  
Mean Temperature 50 °F -  
Max Temperature 55 °F 54 °F 64 °F (2001)
Min Temperature 46 °F 43 °F 28 °F (2004)
Degree Days  
Heating Degree Days 14    
Moisture  
Dew Point 51 °F    
Average Humidity 95    
Maximum Humidity 100    
Minimum Humidity 80    
Precipitation  
Precipitation 0.17 in - - ()
Sea Level Pressure  
Sea Level Pressure 30.08 in    
Wind  
Wind Speed 4 mph (East)    
Max Wind Speed 12 mph    
Max Gust Speed -    
Visibility 6 miles    
Events Rain    
Averages and records for this station are not official NWS values.
T = Trace of Precipitation, MM = Missing Value Source: NWS Daily Summary

Daily Weather History Graph

Daily Weather History Graph

Search for Another Location

Airport or City:

Trip Planner

Search our weather history database for the weather conditions in past years. The results will help you decide how hot, cold, wet, or windy it might be!

Date:

Astronomy

Sep. 10, 2013 Rise Set
Actual Time 6:21 AM AKDT 7:34 PM AKDT
Civil Twilight 5:41 AM AKDT 8:14 PM AKDT
Nautical Twilight 4:51 AM AKDT 9:04 PM AKDT
Astronomical Twilight 3:54 AM AKDT 10:00 PM AKDT
Moon 1:15 PM AKDT (9/10) 9:21 PM AKDT (9/10)
Length of Visible Light 14h 33m
Length of Day
13h 12m
Waxing Crescent, 30% of the Moon is Illuminated
Sep 10
Waxing Crescent
Sep 12
First Quarter
Sep 19
Full
Sep 26
Last Quarter
Oct 4
New

Hourly Weather History & Observations

Time (AKDT) Temp. Dew Point Humidity Pressure Visibility Wind Dir Wind Speed Gust Speed Precip Events Conditions
12:56 AM 48.9 °F 48.9 °F 100% 30.13 in 9.0 mi Calm Calm - N/A   Scattered Clouds
1:56 AM 47.8 °F 47.8 °F 100% 30.13 in 8.0 mi Calm Calm - N/A   Clear
2:56 AM 47.8 °F 47.8 °F 100% 30.12 in 8.0 mi Calm Calm - N/A   Clear
3:56 AM 46.9 °F 46.9 °F 100% 30.12 in 7.0 mi Calm Calm - N/A   Mostly Cloudy
4:56 AM 46.9 °F 46.9 °F 100% 30.11 in 8.0 mi Calm Calm - N/A   Mostly Cloudy
5:56 AM 46.9 °F 46.9 °F 100% 30.11 in 8.0 mi Calm Calm - N/A   Clear
6:56 AM 46.9 °F 46.9 °F 100% 30.10 in 7.0 mi Calm Calm - N/A   Overcast
7:56 AM 48.9 °F 47.8 °F 96% 30.10 in 8.0 mi Calm Calm - N/A   Partly Cloudy
8:56 AM 50.9 °F 50.0 °F 97% 30.10 in 8.0 mi Calm Calm - N/A   Overcast
9:56 AM 52.9 °F 50.9 °F 93% 30.11 in 8.0 mi SE 3.5 mph - 0.00 in Rain Light Rain
10:34 AM 53.6 °F 51.8 °F 94% 30.11 in 7.0 mi Variable 3.5 mph - 0.00 in Rain Light Rain
10:56 AM 52.9 °F 50.9 °F 93% 30.11 in 8.0 mi Variable 4.6 mph - 0.00 in   Partly Cloudy
11:56 AM 54.0 °F 50.9 °F 89% 30.11 in 8.0 mi Variable 3.5 mph - 0.00 in Rain Light Rain
12:56 PM 54.9 °F 50.9 °F 86% 30.10 in 10.0 mi ENE 4.6 mph - 0.00 in   Scattered Clouds
1:56 PM 54.9 °F 50.0 °F 84% 30.09 in 10.0 mi ENE 5.8 mph - 0.00 in   Overcast
2:56 PM 55.9 °F 50.0 °F 80% 30.07 in 10.0 mi East 5.8 mph - N/A   Overcast
3:56 PM 55.4 °F 50.0 °F 82% 30.06 in 7.0 mi East 6.9 mph - N/A Rain Light Rain
4:56 PM 54.0 °F 50.9 °F 89% 30.07 in 3.0 mi East 5.8 mph - 0.02 in Rain Light Rain
5:56 PM 52.9 °F 52.0 °F 97% 30.07 in 2.5 mi East 6.9 mph - 0.00 in   Overcast
6:10 PM 53.6 °F 51.8 °F 94% 30.06 in 2.0 mi East 9.2 mph - N/A   Overcast
6:16 PM 53.6 °F 51.8 °F 94% 30.06 in 1.8 mi East 9.2 mph - N/A   Overcast
6:23 PM 53.6 °F 51.8 °F 94% 30.06 in 2.0 mi East 8.1 mph - N/A   Overcast
6:56 PM 53.6 °F 51.8 °F 94% 30.06 in 2.5 mi East 9.2 mph - N/A   Overcast
7:15 PM 53.6 °F 51.8 °F 94% 30.05 in 2.5 mi East 6.9 mph - 0.02 in Rain Light Rain
7:27 PM 53.6 °F 51.8 °F 94% 30.05 in 2.5 mi East 9.2 mph - 0.05 in Rain Light Rain
7:39 PM 53.6 °F 51.8 °F 94% 30.05 in 3.0 mi East 10.4 mph - 0.08 in Rain Rain
7:56 PM 52.9 °F 52.0 °F 97% 30.06 in 4.0 mi East 10.4 mph - 0.10 in Rain Light Rain
8:56 PM 52.9 °F 52.0 °F 97% 30.05 in 7.0 mi East 10.4 mph - 0.04 in Rain Light Rain
9:17 PM 53.6 °F 51.8 °F 94% 30.05 in 3.0 mi East 8.1 mph - 0.02 in Rain Light Rain
9:25 PM 53.6 °F 51.8 °F 94% 30.05 in 2.5 mi East 11.5 mph - 0.05 in Rain Light Rain
9:42 PM 53.6 °F 53.6 °F 100% 30.05 in 3.0 mi ENE 6.9 mph - 0.10 in Rain Light Rain
9:56 PM 53.6 °F 51.8 °F 94% 30.05 in 4.0 mi East 10.4 mph - N/A Rain Light Rain
10:10 PM 53.6 °F 51.8 °F 94% 30.05 in 7.0 mi East 11.5 mph - 0.00 in   Overcast
10:26 PM 53.6 °F 53.6 °F 100% 30.05 in 4.0 mi East 10.4 mph - 0.01 in   Overcast
10:56 PM 52.9 °F 52.9 °F 100% 30.06 in 3.0 mi East 9.2 mph - 0.01 in Rain Light Rain
11:56 PM 54.0 °F 52.9 °F 96% 30.05 in 4.0 mi East 10.4 mph - 0.00 in   Overcast